Terminal Aerodrome Forecast
Issued by NWS Portland, OR

Home | Current Version | Previous Version | Text Only | Print | Product List | Glossary On
Versions: 1 2 3 4 5 6 7 8 9 10 11 12 13 14 15 16 17 18 19 20 21 22 23 24 25 26 27 28 29 30 31 32 33
000
FTUS46 KPQR 012327
TAFAST
TAF
KAST 012327Z 0200/0224 32014G22KT P6SM SCT150
     FM020600 30008KT P6SM BKN007
     FM021700 29005KT P6SM SCT007
     FM021900 30010KT P6SM SKC=

USA.gov is the U.S. government's official web portal to all federal, state and local government web resources and services.